This is the latest recevied weather packets stored in our database for station/object N3MFL. If no packets are shown the sender has not sent any weather packets the latest 10 day(s).
| Time | Temp. | Humidity | Pressure | Rain* | Wind** | Luminosity | Snow |
|---|---|---|---|---|---|---|---|
| 1778285301 | 11.67° C | 49% | 1012.4 hPa | 0 mm | - | 0 W/m² | - |
| 1778284998 | 11.67° C | 48% | 1012.1 hPa | 0 mm | - | 1 W/m² | - |
| 1778284694 | 12.22° C | 47% | 1012.2 hPa | 0 mm | - | 1 W/m² | - |
| 1778284391 | 12.22° C | 47% | 1011.9 hPa | 0 mm | - | 2 W/m² | - |
| 1778284089 | 11.67° C | 46% | 1011.9 hPa | 0 mm | - | 4 W/m² | - |
| 1778283785 | 11.67° C | 47% | 1011.5 hPa | 0 mm | - | 5 W/m² | - |
| 1778283484 | 12.22° C | 47% | 1011.5 hPa | 0 mm | - | 7 W/m² | - |
| 1778283182 | 12.78° C | 45% | 1011.5 hPa | 0 mm | - | 10 W/m² | - |
| 1778282879 | 12.78° C | 44% | 1011.7 hPa | 0 mm | - | 12 W/m² | - |
| 1778282575 | 12.78° C | 44% | 1011.4 hPa | 0 mm | - | 14 W/m² | - |
| 1778282274 | 12.78° C | 45% | 1011.5 hPa | 0 mm | - | 17 W/m² | - |
| 1778281970 | 12.78° C | 45% | 1011.3 hPa | 0 mm | - | 19 W/m² | - |
| 1778281667 | 13.33° C | 45% | 1011.4 hPa | 0 mm | - | 21 W/m² | - |
| 1778281363 | 13.33° C | 45% | 1011.4 hPa | 0 mm | - | 24 W/m² | - |
| 1778281061 | 13.33° C | 45% | 1011.2 hPa | 0 mm | - | 26 W/m² | - |
| 1778280757 | 13.33° C | 45% | 1011.4 hPa | 0 mm | - | 31 W/m² | - |
| 1778280455 | 13.33° C | 47% | 1011 hPa | 0 mm | - | 35 W/m² | - |
| 1778280152 | 13.33° C | 46% | 1011 hPa | 0 mm | - | 37 W/m² | - |
| 1778279850 | 13.89° C | 44% | 1011.1 hPa | 0 mm | - | 36 W/m² | - |
| 1778279547 | 13.89° C | 44% | 1011.1 hPa | 0 mm | - | 56 W/m² | - |
| 1778279244 | 13.89° C | 44% | 1011.1 hPa | 0 mm | - | 68 W/m² | - |
| 1778278941 | 14.44° C | 43% | 1011.2 hPa | 0 mm | - | 115 W/m² | - |
| 1778278638 | 13.89° C | 48% | 1011.3 hPa | 0 mm | - | 118 W/m² | - |
| 1778278334 | 13.33° C | 45% | 1011.1 hPa | 0 mm | - | 90 W/m² | - |
| 1778278030 | 13.89° C | 46% | 1011 hPa | 0 mm | - | 60 W/m² | - |
* Rain latest hour (hover to see other rain measurements)
** Current wind speed in m/s (hover to see current wind gust speed)